Location: Wald
(31.7579°N, 86.6655°W)
Time: 19:21:11
(UTC+00:00)

Cosmos 44 - Pass Details

Date: 14 July 2020
Orbit: 586 x 776 km, 65.1° (Epoch: 13 August)

Event Time Altitude Azimuth Distance (km) Brightness Sun altitude
Rises 02:41:40 0° 215° (SW) 2,800 6.3 -19.7°
Reaches altitude 10° 02:43:55 10° 218° (SW) 1,899 5.5 -20.1°
Maximum altitude 02:48:07 60° 299° (WNW) 675 3.5 -20.7°
Drops below altitude 10° 02:52:24 10° 20° (NNE) 1,937 5.9 -21.4°
Sets 02:54:43 0° 24° (NNE) 2,861 6.8 -21.7°
